TimePST,TemperatureF,Dew PointF,Humidity,Sea Level PressureIn,VisibilityMPH,Wind Direction,Wind SpeedMPH,Gust SpeedMPH,PrecipitationIn,Events,Conditions,WindDirDegrees,DateUTC
12:15 AM,46.4,44.6,93,29.76,9.0,South,16.1,25.3,0.04,,Overcast,180,2013-01-09 08:15:00
12:35 AM,46.4,44.6,93,29.75,10.0,South,12.7,26.5,0.08,,Overcast,180,2013-01-09 08:35:00
12:55 AM,46.4,44.6,93,29.76,10.0,South,13.8,25.3,0.12,,Overcast,190,2013-01-09 08:55:00
1:15 AM,46.4,42.8,87,29.75,8.0,SSW,20.7,25.3,0.11,,Overcast,210,2013-01-09 09:15:00
1:35 AM,42.8,39.2,87,29.77,9.0,SSW,18.4,23.0,0.15,,Overcast,210,2013-01-09 09:35:00
1:55 AM,42.8,39.2,87,29.76,10.0,SSW,10.4,18.4,0.18,,Overcast,200,2013-01-09 09:55:00
2:15 AM,42.8,39.2,87,29.77,10.0,SSW,10.4,-,0.03,,Overcast,200,2013-01-09 10:15:00
2:35 AM,42.8,39.2,87,29.76,10.0,South,13.8,-,0.04,,Overcast,190,2013-01-09 10:35:00
2:55 AM,42.8,37.4,81,29.76,10.0,SSW,10.4,-,0.07,,Overcast,200,2013-01-09 10:55:00
3:15 AM,42.8,37.4,81,29.74,10.0,South,12.7,17.3,0.01,,Overcast,190,2013-01-09 11:15:00
3:35 AM,41.0,37.4,87,29.73,10.0,SSW,10.4,-,0.04,,Overcast,210,2013-01-09 11:35:00
3:55 AM,41.0,37.4,87,29.74,10.0,SSW,13.8,19.6,0.07,,Overcast,210,2013-01-09 11:55:00
4:15 AM,41.0,37.4,87,29.72,10.0,SSW,11.5,18.4,0.03,,Overcast,210,2013-01-09 12:15:00
4:35 AM,41.0,37.4,87,29.72,10.0,SW,8.1,-,0.05,,Overcast,230,2013-01-09 12:35:00
4:55 AM,41.0,37.4,87,29.71,10.0,SW,9.2,-,0.08,,Overcast,220,2013-01-09 12:55:00
5:15 AM,39.2,37.4,93,29.70,10.0,SSW,9.2,-,0.02,,Overcast,200,2013-01-09 13:15:00
5:35 AM,39.2,35.6,87,29.70,10.0,SSW,5.8,-,0.03,,Overcast,200,2013-01-09 13:35:00
5:55 AM,39.2,35.6,87,29.70,10.0,SSW,8.1,-,0.04,,Overcast,200,2013-01-09 13:55:00
6:15 AM,39.2,35.6,87,29.70,10.0,SSW,8.1,-,0.01,,Overcast,200,2013-01-09 14:15:00
6:35 AM,39.2,35.6,87,29.71,10.0,SSW,8.1,-,0.02,,Overcast,210,2013-01-09 14:35:00
7:15 AM,39.2,35.6,87,29.71,10.0,South,6.9,-,0.02,,Overcast,180,2013-01-09 15:15:00
7:35 AM,39.2,35.6,87,29.73,10.0,South,8.1,-,0.02,,Overcast,190,2013-01-09 15:35:00
7:55 AM,39.2,35.6,87,29.73,10.0,South,6.9,-,0.02,,Overcast,190,2013-01-09 15:55:00
8:15 AM,39.2,35.6,87,29.73,10.0,South,5.8,-,N/A,,Overcast,190,2013-01-09 16:15:00
8:35 AM,39.2,35.6,87,29.75,10.0,South,5.8,-,N/A,,Overcast,190,2013-01-09 16:35:00
8:55 AM,39.2,35.6,87,29.75,10.0,SSE,4.6,-,N/A,,Overcast,150,2013-01-09 16:55:00
9:15 AM,39.2,35.6,87,29.76,10.0,South,5.8,-,N/A,,Overcast,180,2013-01-09 17:15:00
9:55 AM,39.2,35.6,87,29.74,10.0,South,4.6,-,N/A,,Overcast,180,2013-01-09 17:55:00
10:15 AM,39.2,35.6,87,29.77,10.0,South,6.9,-,N/A,,Overcast,190,2013-01-09 18:15:00
10:35 AM,39.2,35.6,87,29.76,10.0,South,6.9,-,N/A,,Overcast,180,2013-01-09 18:35:00
10:55 AM,39.2,35.6,87,29.78,10.0,SSE,5.8,-,N/A,,Overcast,160,2013-01-09 18:55:00
11:15 AM,39.2,35.6,87,29.77,10.0,South,5.8,-,N/A,,Overcast,180,2013-01-09 19:15:00
11:35 AM,41.0,35.6,81,29.78,10.0,South,8.1,-,N/A,,Overcast,180,2013-01-09 19:35:00
11:55 AM,41.0,35.6,81,29.77,10.0,SSW,9.2,-,N/A,,Overcast,210,2013-01-09 19:55:00
12:15 PM,41.0,35.6,81,29.77,10.0,South,10.4,-,N/A,,Mostly Cloudy,190,2013-01-09 20:15:00
12:35 PM,41.0,35.6,81,29.77,10.0,SSW,12.7,-,N/A,,Mostly Cloudy,210,2013-01-09 20:35:00
12:55 PM,41.0,35.6,81,29.76,10.0,SW,11.5,-,N/A,,Mostly Cloudy,220,2013-01-09 20:55:00
1:15 PM,41.0,35.6,81,29.78,10.0,SSW,12.7,18.4,N/A,,Partly Cloudy,200,2013-01-09 21:15:00
1:35 PM,41.0,35.6,81,29.78,10.0,SSW,12.7,-,N/A,,Clear,210,2013-01-09 21:35:00
1:55 PM,41.0,35.6,81,29.79,10.0,SSW,10.4,-,N/A,,Clear,210,2013-01-09 21:55:00
2:15 PM,41.0,33.8,76,29.79,10.0,SSW,11.5,-,N/A,,Clear,200,2013-01-09 22:15:00
2:35 PM,41.0,33.8,76,29.81,10.0,SSW,11.5,16.1,N/A,,Clear,200,2013-01-09 22:35:00
2:55 PM,39.2,33.8,81,29.80,10.0,SSW,10.4,-,N/A,,Clear,200,2013-01-09 22:55:00
3:15 PM,39.2,33.8,81,29.82,10.0,South,10.4,-,N/A,,Clear,190,2013-01-09 23:15:00
3:35 PM,39.2,33.8,81,29.83,10.0,South,8.1,-,N/A,,Clear,190,2013-01-09 23:35:00
3:55 PM,39.2,33.8,81,29.83,10.0,SSW,9.2,-,N/A,,Clear,200,2013-01-09 23:55:00
4:15 PM,39.2,32.0,75,29.84,10.0,South,9.2,-,N/A,,Clear,190,2013-01-10 00:15:00
4:35 PM,39.2,30.2,70,29.85,10.0,SSW,5.8,-,N/A,,Clear,210,2013-01-10 00:35:00
4:55 PM,37.4,28.4,70,29.86,10.0,SSW,5.8,-,N/A,,Clear,200,2013-01-10 00:55:00
5:15 PM,35.6,28.4,75,29.86,10.0,Calm,Calm,-,N/A,,Clear,0,2013-01-10 01:15:00
5:35 PM,35.6,28.4,75,29.87,10.0,Calm,Calm,-,N/A,,Clear,0,2013-01-10 01:35:00
5:55 PM,33.8,28.4,81,29.87,10.0,SSW,5.8,-,N/A,,Clear,200,2013-01-10 01:55:00
6:15 PM,33.8,30.2,87,29.88,10.0,SSW,6.9,-,N/A,,Clear,200,2013-01-10 02:15:00
6:35 PM,33.8,28.4,81,29.90,10.0,South,6.9,-,N/A,,Partly Cloudy,180,2013-01-10 02:35:00
6:55 PM,33.8,30.2,87,29.90,10.0,South,5.8,-,N/A,,Clear,190,2013-01-10 02:55:00
7:15 PM,33.8,30.2,87,29.89,10.0,South,8.1,-,N/A,,Partly Cloudy,180,2013-01-10 03:15:00
7:35 PM,33.8,28.4,81,29.91,10.0,SSW,4.6,-,N/A,,Partly Cloudy,210,2013-01-10 03:35:00
7:55 PM,32.0,28.4,87,29.92,10.0,Calm,Calm,-,N/A,,Partly Cloudy,0,2013-01-10 03:55:00
8:15 PM,30.2,26.6,86,29.92,10.0,Calm,Calm,-,N/A,,Partly Cloudy,0,2013-01-10 04:15:00
8:35 PM,30.2,26.6,86,29.92,10.0,East,3.5,-,N/A,,Mostly Cloudy,90,2013-01-10 04:35:00
8:55 PM,30.2,26.6,86,29.93,10.0,SSE,3.5,-,N/A,,Overcast,150,2013-01-10 04:55:00
9:15 PM,30.2,26.6,86,29.94,10.0,South,3.5,-,N/A,,Scattered Clouds,190,2013-01-10 05:15:00
9:35 PM,32.0,26.6,80,29.93,10.0,Calm,Calm,-,N/A,,Clear,0,2013-01-10 05:35:00
9:55 PM,32.0,28.4,87,29.94,10.0,SSW,5.8,-,N/A,,Clear,200,2013-01-10 05:55:00
10:15 PM,30.2,26.6,86,29.96,10.0,Calm,Calm,-,N/A,,Partly Cloudy,0,2013-01-10 06:15:00
10:35 PM,30.2,26.6,86,29.96,10.0,Calm,Calm,-,N/A,,Mostly Cloudy,0,2013-01-10 06:35:00
10:55 PM,30.2,26.6,86,29.96,10.0,Calm,Calm,-,N/A,,Overcast,0,2013-01-10 06:55:00
11:15 PM,30.2,28.4,93,29.95,10.0,Calm,Calm,-,N/A,,Overcast,0,2013-01-10 07:15:00
11:35 PM,32.0,28.4,87,29.96,10.0,South,6.9,-,N/A,,Overcast,180,2013-01-10 07:35:00
11:55 PM,32.0,28.4,87,29.96,10.0,Calm,Calm,-,N/A,,Overcast,0,2013-01-10 07:55:00